Regional Weather Roundup
Issued by NWS

Home | Current Version | Previous Version | Graphics & Text | Print | Product List | Glossary On
Versions: 1 2 3 4 5 6 7 8 9 10 11 12 13 14 15 16 17 18 19 20 21 22 23 24 25 26 27 28 29 30 31 32 33 34 35 36 37 38 39 40 41 42 43 44 45 46 47 48 49 50
000
ASUS43 KMPX 290010
RWRMN
WEATHER ROUNDUP FOR MINNESOTA
NATIONAL WEATHER SERVICE TWIN CITIES/CHANHASSEN MN
700 PM CDT THU JUL 28 2016


NOTE: "FAIR" INDICATES FEW OR NO CLOUDS BELOW 12,000 FEET WITH NO
SIGNIFICANT WEATHER AND/OR OBSTRUCTIONS TO VISIBILITY. N/A MEANS
CURRENT SKY AND/OR WEATHER CONDITIONS ARE NOT AVAILABLE.

MNZ060>063-068>070-290100-
   Twin Cities Metro

CITY           SKY/WX    TMP DP  RH WIND       PRES   REMARKS
TWIN CITIES    CLOUDY    74  58  57 NE12      30.03R
6HR MIN TEMP:  71; 6HR MAX TEMP:  77;

ST PAUL        CLOUDY    73  58  59 NE7       30.03R
CRYSTAL        CLOUDY    74  54  49 NE7       30.02R
BLAINE         PTSUNNY   75  59  57 NE9       30.04R
LAKEVILLE      CLOUDY    72  59  64 N9        30.03R
EDEN PRAIRIE   CLOUDY    75  56  51 N8        30.02R
6HR MIN TEMP:  70; 6HR MAX TEMP:  78;

LAKEVILLE      CLOUDY    72  59  64 N9        30.03R
SOUTH ST PAUL  CLOUDY    73  56  54 N7        30.02S
LAKE ELMO      CLOUDY    72  59  64 CALM      30.04R
$$
MNZ001>005-007-008-013>017-022>024-027-028-290100-
   Northwest Minnesota

CITY           SKY/WX    TMP DP  RH WIND       PRES   REMARKS
BEMIDJI        MOSUNNY   73  55  53 N9        30.09S
HALLOCK        SUNNY     73  54  49 NW5       30.09S
ROSEAU         SUNNY     73  61  64 E6        30.09S
WARROAD        SUNNY     72  57  60 E5        30.09F
THIEF RVR FALL SUNNY     73  53  49 NW10      30.10S
CROOKSTON      SUNNY     73  55  53 N9        30.09S
FOSSTON        SUNNY     75  57  53 N8        30.09S
DETROIT LAKES  MOSUNNY   77  55  47 NE13      30.07F
MOORHEAD       SUNNY     75  61  60 N13       30.06R
PARK RAPIDS    MOSUNNY   77  55  46 NE9       30.07S
MAHNOMEN       FAIR      75  58  56 N10       30.08S
$$
MNZ006-009>011-018-025>026-290100-
   North Central Minnesota

CITY           SKY/WX    TMP DP  RH WIND       PRES   REMARKS
BAUDETTE       SUNNY     74  56  53 N8        30.08F
FLAG ISLAND    SUNNY     72  50  46 N3        30.08F
INTL FALLS     MOSUNNY   75  51  43 NE3       30.07F
6HR MIN TEMP:  73; 6HR MAX TEMP:  77;

WASKISH        SUNNY     75  57  53 W6        30.07S
BIG FORK       MOSUNNY   72  55  56 CALM      30.07R
LONGVILLE      SUNNY     75  55  50 NW3       30.07S
GRAND RAPIDS   CLOUDY    73  59  61 E3        30.08S
CRANE LAKE     SUNNY     68  61  77 CALM      30.08S
ORR            SUNNY     73  55  53 CALM      30.05S
COOK           MOSUNNY   73  55  53 NE3       30.07S
WALKER         FAIR      73  55  53 N7        30.07S
$$
MNZ012-019>021-037-290100-
   Northeast Minnesota

CITY           SKY/WX    TMP DP  RH WIND       PRES   REMARKS
DULUTH         CLOUDY    68  50  52 E12       30.09R
6HR MIN TEMP:  67; 6HR MAX TEMP:  73;

ELY            SUNNY     73  48  40 NE5       30.07S
HIBBING        PTSUNNY   73  54  51 CALM      30.06S
EVELETH        PTSUNNY   73  56  54 SE8       30.08R
DULUTH HARBOR  CLOUDY    64  61  88 NE9       30.09R
TWO HARBORS    SUNNY     70  55  60 E8        30.08R
SILVER BAY     SUNNY     66  48  52 E5        30.08S
GRAND MARAIS     N/A     65  51  60 CALM      30.09S
G MARAIS ARPRT SUNNY     61  48  63 CALM      30.13
$$
MNZ029>031-032-039>041-046>048-054>057-064-290100-
   West Central Minnesota

CITY           SKY/WX    TMP DP  RH WIND       PRES   REMARKS
FERGUS FALLS   MOSUNNY   77  59  53 N5        30.05S
WHEATON        PTSUNNY   79  64  61 E5        30.05F
MORRIS         SUNNY     77  59  53 NE6       30.04F
ALEXANDRIA     MOSUNNY   72  56  57 E6        30.08S
ELBOW LAKE     PTSUNNY   76  62  63 W8        30.05S
WADENA         PTSUNNY   73  57  56 E3        30.06S
GLENWOOD       SUNNY     75  57  53 E6        30.07F
APPLETON       SUNNY     77  57  50 NE6       30.03F
BENSON         SUNNY     75  55  50 E6        30.04F
ORTONVILLE     SUNNY     75  55  50 NE6       30.04S
MADISON        SUNNY     75  55  50 E9        30.04F
WILLMAR        FAIR      75  57  53 NE12      30.05F
$$
MNZ033>034-036-042>043-049>051-058-059-290100-
   Central Minnesota

CITY           SKY/WX    TMP DP  RH WIND       PRES   REMARKS
ST CLOUD       MOSUNNY   72  57  59 NE6       30.05S
6HR MIN TEMP:  71; 6HR MAX TEMP:  76;

SAUK CENTRE    FAIR      73  57  56 NE6       30.07S
PAYNESVILLE    MOSUNNY   74  53  49 NE7       30.07R
AITKIN         PTSUNNY   73  55  53 E3        30.06R
PINE RIVER     SUNNY     75  55  50 N8        30.09S
BRAINERD       PTSUNNY   74  60  61 CALM      30.06S
STAPLES        MOSUNNY   75  57  53 E3        30.06S
LONG PRAIRIE   FAIR      72  55  56 NE3       30.07S
LITTLE FALLS   CLOUDY    72  54  53 CALM      30.06S
LITCHFIELD     SUNNY     73  57  56 NE7       30.06R
BUFFALO        PTSUNNY   73  58  59 N6        30.05S
MAPLE LAKE     SUNNY     74  59  59 NE6       30.06S
HUTCHINSON     SUNNY     75  58  54 N9        30.05S
$$
MNZ037-044-045-052-053-290100-
   East Central Minnesota

CITY           SKY/WX    TMP DP  RH WIND       PRES   REMARKS
PRINCETON      MOSUNNY   73  55  53 N6        30.06R
MORA           PTSUNNY   68  54  60 CALM      30.07S
CAMBRIDGE      MOSUNNY   73  57  56 N5        30.04R
RUSH CITY      MOSUNNY   69  58  65 NE7       30.05S
MOOSE LAKE     CLOUDY    70  52  52 E5        30.06S
HINCKLEY       FAIR      72  59  64 NE5       30.06S
CLOQUET        CLOUDY    66  48  52 E9        30.09R
MCGREGOR       SUNNY     72  54  53 E8        30.08R
$$
MNZ071>073-080-081-089-090-097-098-290100-
   Southwest Minnesota

CITY           SKY/WX    TMP DP  RH WIND       PRES   REMARKS
MONTEVIDEO     SUNNY     75  57  53 E6        30.05F
GRANITE FALLS  SUNNY     75  58  53 NE8       30.05S
CANBY          SUNNY     76  56  50 NE9       30.06S
MARSHALL       SUNNY     74  55  51 NE10      30.04S
REDWOOD FALLS  SUNNY     75  57  53 NE10      30.03S
OLIVIA         SUNNY     73  57  56 NE10      30.03F
PIPESTONE      MOSUNNY   73  55  53 NE6       30.06S
WINDOM         SUNNY     73  61  64 N9        30.03S
WORTHINGTON    MOSUNNY   72  61  68 N9        30.04S
JACKSON        MOSUNNY   72  59  64 N8        30.04R
TRACY          SUNNY     74  57  55 N10       30.04S
SLAYTON        PTSUNNY   73  58  59 NE8       30.06S
$$
MNZ065>067-074>077-082>085-091>093-290100-
   South Central Minnesota

CITY           SKY/WX    TMP DP  RH WIND       PRES   REMARKS
MANKATO        CLOUDY    72  61  68 NE8       30.02R
NEW ULM        MOSUNNY   73  57  56 NE9G17    30.02S
ST JAMES       CLOUDY    66  61  82 N5        30.03S
FAIRMONT       MOSUNNY   73  63  68 N9        30.01R
GLENCOE        SUNNY     75  60  60 N6        30.03S
FARIBAULT      CLOUDY    72  63  73 N5        30.02F
OWATONNA       PTSUNNY   68  63  83 NE5       30.02S
WASECA         CLOUDY    72  63  73 NE10G17   30.03S
ALBERT LEA     PTSUNNY   70  64  83 NE12      30.01S
$$
MNZ078>079-086>088-094>096-290100-
   Southeast Minnesota

CITY           SKY/WX    TMP DP  RH WIND       PRES   REMARKS
ROCHESTER      CLOUDY    66  64  93 N10       30.02S
6HR MIN TEMP:  66; 6HR MAX TEMP:  72; 6HR PCP:  0.02;

RED WING       CLOUDY    70  64  83 E5        30.01R
STANTON        CLOUDY    72  63  73 N5        30.00F
DODGE CENTER   CLOUDY   N/A N/A N/A NE12G22   30.02S
WINONA         CLOUDY    70  63  78 NE8       30.00R
AUSTIN         PTSUNNY   68  61  77 NE14G24   30.01R
PRESTON        CLOUDY    65  61  87 N7        30.01S
$$
ABBREVIATIONS USED IN REMARKS
   TC - TEMPERATURES IN CELSIUS
  WCI - WIND CHILL INDEX
   HX - HEAT INDEX
  VSB - VISIBILITY
$$



USA.gov is the U.S. government's official web portal to all federal, state and local government web resources and services.